EW7351 Weather Reports


time (UTC)temp
F
wind
direction
speed
knots
gust
knots
rain 1hr
in
rain 24hr
in
rain mn
in
humidity
%
barometer
mb
20260508162126 71 216 2.6 7.0 0.00 0.00 0.00 61 1012.5
20260508161558 71 121 3.5 7.8 0.00 0.00 0.00 62 1012.5
20260508161056 71 221 2.6 7.8 0.00 0.00 0.00 61 1012.6
20260508160527 71 108 2.6 7.8 0.00 0.00 0.00 62 1012.6
20260508160026 70 97 2.6 7.8 0.00 0.00 0.00 61 1012.7
20260508155521 70 229 3.5 7.8 0.00 0.00 0.00 62 1012.8
20260508155021 70 252 3.5 7.8 0.00 0.00 0.00 63 1012.8
20260508154453 70 160 2.6 7.0 0.00 0.00 0.00 62 1012.8
20260508153948 69 129 1.7 7.0 0.00 0.00 0.00 63 1013.0
20260508153447 69 150 1.7 4.3 0.00 0.00 0.00 67 1012.9
20260508152919 68 124 1.7 4.3 0.00 0.00 0.00 66 1012.9
20260508152900 68 172 1.7 4.3 0.00 0.00 0.00 65 1013.1
20260508151849 68 126 2.6 6.1 0.00 0.00 0.00 65 1013.2
20260508151613 68 210 1.7 6.1 0.00 0.00 0.00 65 1013.1
20260508151102 68 158 2.6 6.1 0.00 0.00 0.00 66 1013.1
20260508150341 68 240 2.6 6.1 0.00 0.00 0.00 64 1013.0
20260508145813 68 162 1.7 5.2 0.00 0.00 0.00 64 1013.0
20260508145312 68 154 1.7 4.3 0.00 0.00 0.00 64 1012.9
20260508144746 68 176 2.6 4.3 0.00 0.00 0.00 65 1012.9
20260508144217 67 158 2.6 7.0 0.00 0.00 0.00 66 1012.9
20260508143715 67 161 2.6 7.0 0.00 0.00 0.00 65 1013.1
20260508143148 67 176 2.6 7.8 0.00 0.00 0.00 66 1013.1
20260508142906 67 113 2.6 7.8 0.00 0.00 0.00 65 1013.1
20260508142118 67 227 3.5 7.0 0.00 0.00 0.00 66 1013.2
20260508141844 67 153 3.5 7.8 0.00 0.00 0.00 66 1013.3
20260508141049 67 177 2.6 7.8 0.00 0.00 0.00 66 1013.4
20260508140548 67 172 1.7 6.1 0.00 0.00 0.00 68 1013.3
20260508140019 67 146 2.6 6.1 0.00 0.00 0.00 70 1013.3
20260508135518 66 124 2.6 6.1 0.00 0.00 0.00 68 1013.3
20260508135208 66 176 1.7 6.1 0.00 0.00 0.00 69 1013.3
20260508134449 66 132 0.9 4.3 0.00 0.00 0.00 72 1013.3
20260508134155 65 120 0.9 4.3 0.00 0.00 0.00 72 1013.1
20260508133425 64 134 0.9 3.5 0.00 0.00 0.00 77 1013.1
20260508132924 64 157 0.9 2.6 0.00 0.00 0.00 77 1013.2
20260508132356 63 153 0.9 2.6 0.00 0.00 0.00 77 1013.4
20260508131853 63 146 0.9 3.5 0.00 0.00 0.00 78 1013.5
20260508131614 62 133 0.9 3.5 0.00 0.00 0.00 79 1013.5
20260508130826 62 126 0.0 2.6 0.00 0.00 0.00 83 1013.3
20260508130258 62 136 0.0 1.7 0.00 0.00 0.00 84 1013.4
20260508125230 62 146 0.0 0.0 0.00 0.00 0.00 86 1013.4
20260508124701 61 145 0.0 0.0 0.00 0.00 0.00 86 1013.5
20260508124201 61 146 0.0 0.0 0.00 0.00 0.00 86 1013.6
20260508123631 61 145 0.0 0.0 0.00 0.00 0.00 86 1013.7
20260508123359 60 145 0.0 0.0 0.00 0.00 0.00 86 1013.7
20260508122604 60 146 0.0 0.0 0.00 0.00 0.00 86 1013.6
20260508122100 60 146 0.0 0.0 0.00 0.00 0.00 86 1013.5
20260508121533 60 145 0.0 0.0 0.00 0.00 0.00 86 1013.5
20260508121028 60 145 0.0 0.0 0.00 0.00 0.00 86 1013.5
20260508120526 60 145 0.0 0.0 0.00 0.00 0.00 86 1013.5
20260508115957 60 145 0.0 0.0 0.00 0.00 0.00 86 1013.6
20260508115456 60 146 0.0 0.0 0.00 0.00 0.00 86 1013.4
20260508115148 60 146 0.0 0.0 0.00 0.00 0.00 86 1013.6
20260508114423 60 146 0.0 1.7 0.00 0.00 0.00 86 1013.6
20260508113902 60 146 0.0 2.6 0.00 0.00 0.00 86 1013.4
20260508113333 60 117 0.0 2.6 0.00 0.00 0.00 86 1013.5
20260508112831 60 129 0.9 2.6 0.00 0.00 0.00 86 1013.6
20260508112527 60 120 0.9 2.6 0.00 0.00 0.00 86 1013.6
20260508111804 60 133 0.0 0.9 0.00 0.00 0.00 86 1013.8
20260508111307 60 339 0.0 0.0 0.00 0.00 0.00 85 1013.9
20260508110746 60 339 0.0 1.7 0.00 0.00 0.00 85 1014.1
20260508110726 60 339 0.9 3.5 0.00 0.00 0.00 85 1014.3
20260508105739 60 334 0.9 3.5 0.00 0.00 0.00 84 1014.2
20260508105219 60 319 0.0 0.0 0.00 0.00 0.00 84 1013.9
20260508104659 60 262 0.0 0.9 0.00 0.00 0.00 84 1013.5
20260508104159 60 262 0.0 1.7 0.00 0.00 0.00 83 1013.1
20260508103654 60 153 0.0 1.7 0.00 0.00 0.00 83 1012.9
20260508103129 60 259 0.0 0.9 0.00 0.00 0.00 83 1012.7
20260508102631 60 259 0.0 0.9 0.00 0.00 0.00 84 1012.6
20260508102128 60 259 0.0 1.7 0.00 0.00 0.00 84 1012.6
20260508101629 60 259 0.0 1.7 0.00 0.00 0.00 85 1012.5
20260508101333 60 237 0.0 1.7 0.00 0.00 0.00 86 1012.5
20260508100605 60 231 0.0 0.0 0.00 0.00 0.00 86 1012.5
20260508100049 60 231 0.0 0.0 0.00 0.00 0.00 85 1012.6
20260508095541 60 231 0.0 0.0 0.00 0.00 0.00 85 1012.5
20260508095306 60 231 0.0 0.0 0.00 0.00 0.00 85 1012.6
20260508094549 60 231 0.0 0.0 0.00 0.00 0.00 85 1012.7
20260508094538 60 231 0.0 0.0 0.00 0.00 0.00 85 1012.7
20260508094226 60 231 0.0 0.0 0.00 0.00 0.00 85 1012.8
20260508092948 60 231 0.0 0.0 0.00 0.00 0.00 85 1012.8
20260508092449 60 231 0.0 0.0 0.00 0.00 0.00 85 1012.8
20260508091933 60 231 0.0 0.0 0.00 0.00 0.00 85 1012.7
20260508091435 61 231 0.0 0.0 0.00 0.00 0.00 85 1012.8
20260508090907 60 231 0.0 1.7 0.00 0.00 0.00 85 1012.8
20260508090350 60 231 0.0 0.9 0.00 0.00 0.00 85 1012.9
20260508090330 60 121 0.9 4.3 0.00 0.00 0.00 85 1012.7
20260508085321 60 165 1.7 4.3 0.00 0.00 0.00 86 1012.7
20260508084821 60 131 1.7 4.3 0.00 0.00 0.00 86 1012.7
20260508084322 60 147 1.7 4.3 0.00 0.00 0.00 86 1012.7
20260508083801 60 141 0.9 3.5 0.00 0.00 0.00 86 1013.2
20260508083300 60 278 0.0 0.0 0.00 0.00 0.00 86 1013.7
20260508083025 60 278 0.0 0.0 0.00 0.00 0.00 84 1013.7
20260508082306 60 278 0.0 0.0 0.00 0.00 0.00 84 1013.8
20260508081737 60 278 0.0 0.0 0.00 0.00 0.00 84 1013.7
20260508081209 61 278 0.0 0.0 0.00 0.00 0.00 84 1014.1
20260508080639 61 278 0.0 0.0 0.00 0.00 0.00 83 1014.2
20260508080116 61 274 0.0 0.0 0.00 0.00 0.00 84 1014.2
20260508075612 60 274 0.0 0.9 0.00 0.00 0.00 83 1014.3
20260508075111 60 274 0.0 0.9 0.00 0.00 0.00 84 1014.4
20260508074550 60 150 0.0 0.0 0.00 0.00 0.00 84 1013.9
20260508074253 60 150 0.0 0.0 0.00 0.00 0.00 84 1013.6
20260508073524 60 150 0.0 0.0 0.00 0.00 0.00 84 1013.6
20260508073020 60 150 0.0 0.0 0.00 0.00 0.00 84 1013.7
20260508072514 59 150 0.0 0.0 0.00 0.00 0.00 85 1013.7
20260508071947 59 150 0.0 0.0 0.00 0.00 0.00 85 1013.7
20260508071422 59 150 0.0 0.0 0.00 0.00 0.00 85 1013.7
20260508070852 59 150 0.0 0.0 0.00 0.00 0.00 84 1013.8
20260508070351 59 150 0.0 0.0 0.00 0.00 0.00 84 1013.8
20260508065846 59 150 0.0 0.0 0.00 0.00 0.00 84 1013.8
20260508065339 59 150 0.0 0.0 0.00 0.00 0.00 84 1014.0
20260508065106 59 150 0.0 0.0 0.00 0.00 0.00 84 1014.2
20260508064313 59 150 0.0 0.0 0.00 0.00 0.00 84 1014.2
20260508064010 59 150 0.0 0.0 0.00 0.00 0.00 84 1014.2
20260508063238 59 150 0.0 0.0 0.00 0.00 0.00 84 1014.4
20260508062959 59 150 0.0 0.0 0.00 0.00 0.00 84 1014.4
20260508062236 59 150 0.0 0.0 0.00 0.00 0.00 84 1014.4
20260508061706 59 150 0.0 0.0 0.00 0.00 0.00 84 1014.4
20260508061205 59 150 0.0 0.0 0.00 0.00 0.00 84 1014.4
20260508060652 59 150 0.0 0.0 0.00 0.00 0.00 83 1014.4
20260508060409 59 150 0.0 0.0 0.00 0.00 0.00 83 1014.4
20260508055818 59 150 0.0 0.0 0.00 0.00 0.00 82 1014.6
20260508055658 59 150 0.0 0.0 0.00 0.00 0.00 83 1014.4
20260508054536 59 150 0.0 0.0 0.00 0.00 0.00 82 1014.5
20260508054008 59 150 0.0 0.0 0.00 0.00 0.00 82 1014.4
20260508053505 59 150 0.0 0.0 0.00 0.00 0.00 81 1014.5
20260508053001 59 150 0.0 0.0 0.00 0.00 0.00 82 1014.5
20260508052440 59 150 0.0 0.0 0.00 0.00 0.00 82 1014.5
20260508051902 59 150 0.0 0.0 0.00 0.00 0.00 81 1014.5
20260508051401 59 150 0.0 0.0 0.00 0.00 0.00 80 1014.4
20260508050835 59 150 0.0 0.0 0.00 0.00 0.00 81 1014.4
20260508050548 59 150 0.0 0.0 0.00 0.00 0.00 81 1014.4
20260508050051 59 150 0.0 0.0 0.00 0.00 0.00 81 1014.5
20260508045306 59 150 0.0 0.0 0.00 0.00 0.00 81 1014.5
20260508044736 59 150 0.0 0.0 0.00 0.00 0.00 82 1014.7
20260508044232 59 150 0.0 0.0 0.00 0.00 0.00 81 1014.4
20260508043731 59 150 0.0 0.0 0.00 0.00 0.00 80 1014.3
20260508043203 60 150 0.0 0.0 0.00 0.00 0.00 79 1014.3
20260508042658 60 150 0.0 0.0 0.00 0.00 0.00 79 1014.3
20260508042133 60 150 0.0 0.0 0.00 0.00 0.00 79 1014.4
20260508041630 60 150 0.0 0.0 0.00 0.00 0.00 79 1014.4
20260508041128 60 150 0.0 0.0 0.00 0.00 0.00 79 1014.4
20260508040616 60 150 0.0 0.0 0.00 0.00 0.00 79 1014.2
20260508040113 60 150 0.0 0.0 0.00 0.00 0.00 77 1014.2
20260508035549 61 150 0.0 0.0 0.00 0.00 0.00 77 1014.2
20260508035036 61 150 0.0 0.0 0.00 0.00 0.00 77 1014.1
20260508034806 61 150 0.0 0.0 0.00 0.00 0.00 77 1014.2
20260508034010 61 150 0.0 0.0 0.00 0.00 0.00 76 1014.2
20260508033510 61 150 0.0 0.0 0.00 0.00 0.00 76 1014.1
20260508033205 61 150 0.0 0.0 0.00 0.00 0.00 76 1014.1
20260508032441 61 150 0.0 0.0 0.00 0.00 0.00 75 1014.1
20260508032156 61 150 0.0 0.0 0.00 0.00 0.00 75 1014.3
20260508031917 61 150 0.0 0.0 0.00 0.00 0.00 76 1014.2
20260508030909 61 150 0.0 0.0 0.00 0.00 0.00 76 1014.2
20260508030400 61 150 0.0 0.0 0.00 0.00 0.00 75 1014.1
20260508025858 61 150 0.0 0.0 0.00 0.00 0.00 74 1014.1
20260508025346 61 150 0.0 0.0 0.00 0.00 0.00 75 1014.0
20260508024846 61 150 0.0 0.0 0.00 0.00 0.00 74 1014.0
20260508024323 61 150 0.0 0.0 0.00 0.00 0.00 73 1014.1
20260508023755 62 150 0.0 0.0 0.00 0.00 0.00 72 1014.1
20260508023255 62 150 0.0 0.0 0.00 0.00 0.00 72 1014.1
20260508022729 62 150 0.0 0.0 0.00 0.00 0.00 71 1013.9
20260508022200 62 150 0.0 0.0 0.00 0.00 0.00 71 1013.8
20260508021700 63 150 0.0 0.0 0.00 0.00 0.00 70 1013.8
20260508021356 63 150 0.0 0.0 0.00 0.00 0.00 70 1013.7
20260508020615 63 150 0.0 0.0 0.00 0.00 0.00 68 1013.6
20260508020110 63 150 0.0 0.0 0.00 0.00 0.00 67 1013.6
20260508015550 64 150 0.0 0.0 0.00 0.00 0.00 67 1013.6
20260508015030 64 150 0.0 0.0 0.00 0.00 0.00 67 1013.6
20260508014526 64 150 0.0 0.0 0.00 0.00 0.00 67 1013.7
20260508014023 64 150 0.0 0.0 0.00 0.00 0.00 65 1013.7
20260508013501 65 150 0.0 0.0 0.00 0.00 0.00 65 1013.7
20260508013005 65 150 0.0 0.0 0.00 0.00 0.00 64 1013.7
20260508012500 65 150 0.0 0.0 0.00 0.00 0.00 63 1013.6
20260508012002 66 150 0.0 0.0 0.00 0.00 0.00 62 1013.6
20260508011442 66 150 0.0 0.0 0.00 0.00 0.00 62 1013.6
20260508011139 66 150 0.0 1.7 0.00 0.00 0.00 61 1013.6
20260508010619 66 150 0.0 1.7 0.00 0.00 0.00 61 1013.6
20260508010117 66 224 0.0 2.6 0.00 0.00 0.00 61 1013.6
20260508005615 67 245 0.9 3.5 0.00 0.00 0.00 61 1013.6
20260508004836 67 234 0.9 3.5 0.00 0.00 0.00 61 1013.6
20260508004333 67 272 0.9 4.3 0.00 0.00 0.00 61 1013.7
20260508003833 67 235 0.9 4.3 0.00 0.00 0.00 60 1013.7
20260508003330 67 121 0.9 3.5 0.00 0.00 0.00 60 1013.6
20260508002813 67 195 0.9 5.2 0.00 0.00 0.00 60 1013.6
20260508002255 67 174 1.7 5.2 0.00 0.00 0.00 59 1013.7
20260508001736 67 236 1.7 5.2 0.00 0.00 0.00 58 1013.7
20260508001214 68 197 1.7 5.2 0.00 0.00 0.00 58 1013.7
20260508000649 68 110 1.7 5.2 0.00 0.00 0.00 58 1013.8
20260508000132 68 123 1.7 6.1 0.00 0.00 0.00 58 1013.8
20260507235631 68 167 1.7 6.1 0.00 0.00 0.00 58 1013.6
20260507235130 68 156 2.6 5.2 0.00 0.00 0.00 57 1013.7
20260507234607 68 117 2.6 6.1 0.00 0.00 0.00 57 1013.7
20260507234045 68 193 1.7 6.1 0.00 0.00 0.00 58 1013.7
20260507233540 68 250 1.7 5.2 0.00 0.00 0.00 58 1013.7
20260507233037 68 217 2.6 6.1 0.00 0.00 0.00 58 1013.5
20260507232537 69 188 2.6 6.1 0.00 0.00 0.00 57 1013.6
20260507232029 69 192 1.7 6.1 0.00 0.00 0.00 58 1013.7
20260507231532 69 122 1.7 6.1 0.00 0.00 0.00 58 1013.8
20260507231026 69 155 2.6 7.0 0.00 0.00 0.00 57 1013.8
20260507230525 69 178 2.6 7.0 0.00 0.00 0.00 57 1013.8
20260507230024 69 206 2.6 7.8 0.00 0.00 0.00 56 1013.9
20260507225526 70 122 2.6 7.8 0.00 0.00 0.00 55 1013.7
20260507225011 70 100 2.6 6.1 0.00 0.00 0.00 56 1013.8
20260507224511 70 146 2.6 6.1 0.00 0.00 0.00 54 1013.7
20260507223945 70 210 2.6 6.1 0.00 0.00 0.00 54 1013.8
20260507223440 71 129 2.6 6.1 0.00 0.00 0.00 54 1013.8
20260507222914 72 144 1.7 6.1 0.00 0.00 0.00 51 1013.8
20260507222350 73 283 0.9 3.5 0.00 0.00 0.00 52 1013.9
20260507221825 73 129 0.0 2.6 0.00 0.00 0.00 49 1013.7
20260507221300 73 120 0.0 1.7 0.00 0.00 0.00 48 1013.9
20260507220753 73 121 0.9 3.5 0.00 0.00 0.00 49 1014.1
20260507220250 74 122 0.0 3.5 0.00 0.00 0.00 48 1014.0
20260507215746 73 121 0.0 1.7 0.00 0.00 0.00 50 1013.9
20260507215243 73 323 0.0 2.6 0.00 0.00 0.00 47 1013.9
20260507214715 73 15 0.0 2.6 0.00 0.00 0.00 45 1014.1
20260507214211 73 123 0.0 2.6 0.00 0.00 0.00 48 1014.2
20260507213712 74 26 0.0 2.6 0.00 0.00 0.00 46 1014.2
20260507213156 74 144 0.0 2.6 0.00 0.00 0.00 47 1014.3
20260507212656 74 72 0.9 2.6 0.00 0.00 0.00 50 1014.4
20260507212154 74 114 0.0 2.6 0.00 0.00 0.00 48 1014.3
20260507211655 74 71 0.0 1.7 0.00 0.00 0.00 46 1014.4
20260507211127 74 116 0.0 1.7 0.00 0.00 0.00 45 1014.4
20260507210626 74 122 0.0 3.5 0.00 0.00 0.00 46 1014.4
20260507210121 74 73 0.0 3.5 0.00 0.00 0.00 45 1014.4
20260507205619 74 314 0.9 2.6 0.00 0.00 0.00 46 1014.4
20260507205051 74 161 0.9 2.6 0.00 0.00 0.00 45 1014.4
20260507204551 75 115 0.0 2.6 0.00 0.00 0.00 45 1014.3
20260507204249 75 338 0.9 4.3 0.00 0.00 0.00 47 1014.4
20260507203523 75 68 0.9 4.3 0.00 0.00 0.00 47 1014.5
20260507203023 75 133 0.9 2.6 0.00 0.00 0.00 47 1014.6
20260507202523 74 120 0.9 4.3 0.00 0.00 0.00 47 1014.7
20260507202019 74 137 0.9 4.3 0.00 0.00 0.00 48 1014.8
20260507201516 74 117 0.9 3.5 0.00 0.00 0.00 46 1014.8
20260507201013 74 143 0.9 4.3 0.00 0.00 0.00 49 1015.0
20260507200732 74 115 0.9 3.5 0.00 0.00 0.00 48 1014.9
20260507200212 74 129 0.0 3.5 0.00 0.00 0.00 49 1015.1
20260507195428 74 14 0.0 1.7 0.00 0.00 0.00 45 1015.0
20260507194927 74 134 0.9 2.6 0.00 0.00 0.00 48 1015.2
20260507194427 74 69 0.9 2.6 0.00 0.00 0.00 46 1015.3
20260507193925 74 185 0.9 3.5 0.00 0.00 0.00 48 1015.4
20260507193427 74 162 0.9 4.3 0.00 0.00 0.00 50 1015.4
20260507192902 74 160 0.9 4.3 0.00 0.00 0.00 50 1015.5
20260507192334 73 350 0.9 4.3 0.00 0.00 0.00 48 1015.5
20260507191811 73 25 0.9 4.3 0.00 0.00 0.00 49 1015.7
20260507191243 74 131 0.9 2.6 0.00 0.00 0.00 49 1015.6
20260507190739 73 93 1.7 6.1 0.00 0.00 0.00 49 1015.6
20260507190239 72 112 1.7 7.8 0.00 0.00 0.00 51 1015.7
20260507185734 71 27 1.7 7.8 0.00 0.00 0.00 51 1015.7
20260507185232 71 323 1.7 7.8 0.00 0.00 0.00 46 1015.7
20260507184703 71 358 0.9 6.1 0.00 0.00 0.00 52 1015.7
20260507184201 71 11 1.7 7.0 0.00 0.00 0.00 51 1015.8
20260507183635 70 128 1.7 8.7 0.00 0.00 0.00 51 1015.9
20260507183338 70 330 2.6 8.7 0.00 0.00 0.00 49 1016.0
20260507182605 70 46 3.5 8.7 0.00 0.00 0.00 52 1016.1
20260507182037 69 76 3.5 8.7 0.00 0.00 0.00 51 1016.2
20260507181531 69 317 2.6 7.8 0.00 0.00 0.00 50 1016.2
20260507181030 69 72 2.6 7.8 0.00 0.00 0.00 50 1016.4
20260507180505 69 60 2.6 7.8 0.00 0.00 0.00 47 1016.4
20260507180224 70 37 1.7 7.8 0.00 0.00 0.00 49 1016.6
20260507175708 70 91 0.9 7.0 0.00 0.00 0.00 52 1016.6
20260507174950 69 34 1.7 7.0 0.00 0.00 0.00 51 1016.6
20260507174442 68 47 2.6 7.0 0.00 0.00 0.00 51 1016.8
20260507173939 68 297 1.7 7.0 0.00 0.00 0.00 49 1016.8
20260507173436 68 63 1.7 7.0 0.00 0.00 0.00 54 1016.9
20260507172933 68 79 1.7 7.0 0.00 0.00 0.00 52 1017.0
20260507172407 69 358 1.7 5.2 0.00 0.00 0.00 53 1017.1
20260507171840 68 342 0.9 5.2 0.00 0.00 0.00 54 1017.3
20260507171555 68 11 0.9 5.2 0.00 0.00 0.00 51 1017.5
20260507170835 68 266 0.9 4.3 0.00 0.00 0.00 55 1017.6
20260507170311 68 343 0.9 5.2 0.00 0.00 0.00 56 1017.8
20260507165805 67 134 1.7 5.2 0.00 0.00 0.00 57 1017.8
20260507165306 67 70 1.7 6.1 0.00 0.00 0.00 54 1017.9
20260507164956 67 5 1.7 6.1 0.00 0.00 0.00 55 1018.0
20260507164234 67 74 0.9 3.5 0.00 0.00 0.00 56 1018.0
20260507163705 67 292 0.9 5.2 0.00 0.00 0.00 56 1018.2
20260507163204 66 51 1.7 5.2 0.00 0.00 0.00 55 1018.2
20260507162859 66 204 0.9 6.1 0.00 0.00 0.00 58 1018.2
20260507162132 66 340 1.7 6.1 0.00 0.00 0.00 60 1018.3